Location: Goll?ig?dem
(16.6773°N, 80.7332°E)
Time: 08:06:10
(UTC+00:00)

Iridium 2 - Pass Details

Date: 21 April 2021
Orbit: 503 x 512 km, 85.5° (Epoch: 06 May)

Event Time Altitude Azimuth Distance (km) Brightness Sun altitude
Rises 23:40:51 0° 195° (SSW) 2,589 7.0 -9.3°
Reaches altitude 10° 23:43:02 10° 202° (SSW) 1,708 6.0 -8.8°
Maximum altitude 23:46:33 39° 272° (W) 763 4.1 -8.0°
Drops below altitude 10° 23:50:04 10° 343° (NNW) 1,715 6.3 -7.1°
Sets 23:52:17 0° 351° (N) 2,603 7.3 -6.6°
